NUSAT-1 (FRESCO) (41557 NORAD) Tracking and Keplerian Element Data

This shows tracking and keplerian element data for the satellite.

Feedback or suggestion? Click here.




ElementValue
Catalog41557
NameNUSAT-1 (FRESCO)
Epoch Orbit16162
Epoch Day114.21774559
Epoch Year2019
RAAN202.0478
Inclination97.4173
Eccentricity0.0015248
Argument of Perigee130.048
Mean Anonmoly230.2099
Mean Motion15.27066072
Decay Rate1.481E-05
L11 41557U 16033B 19114.21774559 .00001481 00000-0 58415-4 0 9992
L22 41557 97.4173 202.0478 0015248 130.0480 230.2099 15.27066072161621

Live tracking and technical data element details for NUSAT-1 (FRESCO) (NORAD 41557). NUSAT-1 (FRESCO) can be tracked NOW for your location showing map with azimuth and elevation plus other details from your city location.

Track the satellite on the map from your city or location and see movement details for azimuth, elevation, latitude, longitude, range, height, and movement on the map or in text.







IsCatalogInMostPopularTable: catalog: 41557, numindb: 209
Update: records affected: 1



GetName: 41557 NUSAT-1 (FRESCO)

Hit Count: updated at: Wed, 24 Apr 2019 18:49:18 GMT